Princeton, MN

3:07 PM CDT on May 23, 2017 (GMT -0500)
Princeton Municipal

Weather History for KPNM - April, 2013

Change the Weather History Date:

Sunday, April 14, 2013

  Actual Average Record
Temperature  
Mean Temperature 26 °F -  
Max Temperature 33 °F 53 °F 87 °F (2003)
Min Temperature 19 °F 32 °F 5 °F (1999)
Degree Days  
Heating Degree Days 39    
Moisture  
Dew Point 24 °F    
Average Humidity 81    
Maximum Humidity 93    
Minimum Humidity 60    
Precipitation  
Precipitation 0.19 in - - ()
Sea Level Pressure  
Sea Level Pressure 29.72 in    
Wind  
Wind Speed 7 mph (ENE)    
Max Wind Speed 20 mph    
Max Gust Speed 30 mph    
Visibility 7 miles    
Events Snow    
Averages and records for this station are not official NWS values.
T = Trace of Precipitation, MM = Missing Value Source: NWS Daily Summary

Daily Weather History Graph

Daily Weather History Graph

Search for Another Location

Airport or City:

Trip Planner

Search our weather history database for the weather conditions in past years. The results will help you decide how hot, cold, wet, or windy it might be!

Date:

Astronomy

Apr. 14, 2013 Rise Set
Actual Time 6:30 AM CDT 7:59 PM CDT
Civil Twilight 5:59 AM CDT 8:30 PM CDT
Nautical Twilight 5:21 AM CDT 9:08 PM CDT
Astronomical Twilight 4:41 AM CDT 9:48 PM CDT
Moon 8:58 AM CDT (4/14) No Moon Set
Length of Visible Light 14h 31m
Length of Day
13h 29m
Waxing Crescent, 17% of the Moon is Illuminated
Apr 14
Waxing Crescent
Apr 18
First Quarter
Apr 25
Full
May 2
Last Quarter
May 9
New

Hourly Weather History & Observations

Time (CDT) Temp. Windchill Dew Point Humidity Pressure Visibility Wind Dir Wind Speed Gust Speed Precip Events Conditions
12:11 AM 21.2 °F - 17.6 °F 86% 29.94 in 10.0 mi Calm Calm - N/A   Clear
12:31 AM 21.2 °F - 19.4 °F 93% 29.94 in 10.0 mi Calm Calm - N/A   Clear
12:51 AM 21.2 °F - 17.6 °F 86% 29.94 in 10.0 mi Calm Calm - N/A   Clear
1:11 AM 19.4 °F - 17.6 °F 93% 29.93 in 10.0 mi Calm Calm - N/A   Clear
1:31 AM 21.2 °F - 19.4 °F 93% 29.93 in 10.0 mi Calm Calm - N/A   Clear
1:51 AM 19.4 °F - 17.6 °F 93% 29.92 in 10.0 mi Calm Calm - N/A   Scattered Clouds
2:11 AM 24.8 °F - 19.4 °F 80% 29.92 in 10.0 mi Calm Calm - N/A   Mostly Cloudy
2:31 AM 24.8 °F 20.5 °F 19.4 °F 80% 29.90 in 10.0 mi NE 3.5 mph - N/A   Overcast
2:51 AM 26.6 °F 22.6 °F 19.4 °F 74% 29.88 in 10.0 mi NE 3.5 mph - N/A   Overcast
3:11 AM 26.6 °F 22.6 °F 19.4 °F 74% 29.89 in 10.0 mi ENE 3.5 mph - N/A   Mostly Cloudy
3:31 AM 26.6 °F 22.6 °F 19.4 °F 74% 29.89 in 10.0 mi ENE 3.5 mph - N/A   Scattered Clouds
3:51 AM 26.6 °F 19.1 °F 19.4 °F 74% 29.88 in 10.0 mi ENE 6.9 mph - N/A   Scattered Clouds
4:11 AM 26.6 °F 21.2 °F 19.4 °F 74% 29.89 in 10.0 mi East 4.6 mph - N/A   Mostly Cloudy
4:31 AM 26.6 °F 20.0 °F 19.4 °F 74% 29.90 in 10.0 mi East 5.8 mph - N/A   Overcast
4:51 AM 26.6 °F 20.0 °F 19.4 °F 74% 29.91 in 10.0 mi ENE 5.8 mph - N/A   Overcast
5:11 AM 26.6 °F 20.0 °F 19.4 °F 74% 29.90 in 10.0 mi ENE 5.8 mph - N/A   Overcast
5:31 AM 28.4 °F 21.2 °F 19.4 °F 69% 29.90 in 10.0 mi ENE 6.9 mph - N/A   Overcast
5:51 AM 28.4 °F 21.2 °F 19.4 °F 69% 29.89 in 10.0 mi East 6.9 mph - N/A   Overcast
6:11 AM 28.4 °F 20.4 °F 19.4 °F 69% 29.89 in 10.0 mi East 8.1 mph - N/A   Overcast
6:31 AM 28.4 °F 20.4 °F 19.4 °F 69% 29.89 in 10.0 mi East 8.1 mph - N/A   Overcast
6:51 AM 28.4 °F 19.7 °F 19.4 °F 69% 29.88 in 7.0 mi ENE 9.2 mph - N/A Snow Light Snow
7:11 AM 28.4 °F 19.1 °F 21.2 °F 74% 29.87 in 5.0 mi East 10.4 mph 17.3 mph N/A Snow Light Snow
7:31 AM 28.4 °F 18.5 °F 21.2 °F 74% 29.86 in 10.0 mi East 11.5 mph 17.3 mph N/A Snow Light Snow
7:51 AM 28.4 °F 18.5 °F 21.2 °F 74% 29.85 in 10.0 mi ENE 11.5 mph - N/A   Overcast
8:11 AM 30.2 °F 20.8 °F 21.2 °F 69% 29.84 in 7.0 mi ENE 11.5 mph - N/A Snow Light Snow
8:31 AM 28.4 °F 17.5 °F 21.2 °F 74% 29.82 in 7.0 mi East 13.8 mph 20.7 mph N/A Snow Light Snow
8:51 AM 30.2 °F 20.8 °F 21.2 °F 69% 29.82 in 10.0 mi ENE 11.5 mph 19.6 mph N/A Snow Light Snow
9:11 AM 30.2 °F 20.2 °F 21.2 °F 69% 29.81 in 10.0 mi East 12.7 mph 16.1 mph N/A   Overcast
9:31 AM 30.2 °F 20.8 °F 21.2 °F 69% 29.80 in 10.0 mi East 11.5 mph 17.3 mph N/A   Overcast
9:51 AM 30.2 °F 20.2 °F 21.2 °F 69% 29.79 in 10.0 mi East 12.7 mph 20.7 mph N/A   Overcast
10:11 AM 30.2 °F 19.3 °F 21.2 °F 69% 29.78 in 10.0 mi East 15.0 mph 21.9 mph N/A   Overcast
10:31 AM 30.2 °F 17.8 °F 21.2 °F 69% 29.77 in 10.0 mi East 19.6 mph 26.5 mph N/A   Overcast
10:51 AM 32.0 °F 20.8 °F 21.2 °F 64% 29.75 in 10.0 mi ENE 17.3 mph 21.9 mph N/A   Overcast
11:11 AM 33.8 °F 23.2 °F 21.2 °F 60% 29.74 in 10.0 mi ENE 17.3 mph 24.2 mph N/A   Overcast
11:31 AM 33.8 °F 23.9 °F 21.2 °F 60% 29.74 in 10.0 mi ENE 15.0 mph 23.0 mph N/A   Overcast
11:51 AM 33.8 °F 24.3 °F 21.2 °F 60% 29.74 in 10.0 mi ENE 13.8 mph 24.2 mph N/A   Overcast
12:11 PM 33.8 °F 23.2 °F 21.2 °F 60% 29.75 in 7.0 mi East 17.3 mph 24.2 mph N/A   Overcast
12:31 PM 32.0 °F 22.1 °F 23.0 °F 69% 29.75 in 2.0 mi East 13.8 mph 24.2 mph N/A Snow Light Snow
12:51 PM 32.0 °F 22.1 °F 26.6 °F 80% 29.74 in 1.2 mi East 13.8 mph 20.7 mph N/A Snow Light Snow
1:11 PM 30.2 °F 20.2 °F 26.6 °F 86% 29.72 in 1.2 mi ENE 12.7 mph 23.0 mph N/A Snow Light Snow
1:31 PM 30.2 °F 18.5 °F 26.6 °F 86% 29.70 in 1.0 mi ENE 17.3 mph 26.5 mph N/A Snow Light Snow
1:51 PM 30.2 °F 19.3 °F 26.6 °F 86% 29.69 in 0.8 mi ENE 15.0 mph 23.0 mph N/A Snow Light Snow
2:11 PM 30.2 °F 17.8 °F 26.6 °F 86% 29.67 in 1.5 mi ENE 19.6 mph 27.6 mph N/A Snow Light Snow
2:31 PM 30.2 °F 18.9 °F 26.6 °F 86% 29.66 in 4.0 mi ENE 16.1 mph 27.6 mph N/A Snow Light Snow
2:51 PM 30.2 °F 18.1 °F 26.6 °F 86% 29.65 in 7.0 mi NE 18.4 mph 28.8 mph N/A   Overcast
3:11 PM 30.2 °F 18.1 °F 26.6 °F 86% 29.64 in 5.0 mi ENE 18.4 mph 25.3 mph N/A   Overcast
3:31 PM 30.2 °F 18.5 °F 26.6 °F 86% 29.63 in 2.5 mi ENE 17.3 mph 27.6 mph N/A   Overcast
3:51 PM 30.2 °F 18.9 °F 26.6 °F 86% 29.61 in 4.0 mi ENE 16.1 mph 23.0 mph N/A   Overcast
4:11 PM 30.2 °F 18.5 °F 26.6 °F 86% 29.60 in 3.0 mi ENE 17.3 mph 29.9 mph N/A Snow Light Snow
4:31 PM 30.2 °F 17.8 °F 28.4 °F 93% 29.58 in 1.8 mi ENE 19.6 mph 25.3 mph N/A   Overcast
4:51 PM 30.2 °F 18.9 °F 28.4 °F 93% 29.57 in 3.0 mi ENE 16.1 mph 23.0 mph N/A   Overcast
5:11 PM 32.0 °F 21.2 °F 28.4 °F 87% 29.56 in 7.0 mi ENE 16.1 mph 25.3 mph N/A   Overcast
5:31 PM 32.0 °F 21.6 °F 28.4 °F 87% 29.56 in 3.0 mi ENE 15.0 mph 23.0 mph N/A   Overcast
5:51 PM 32.0 °F 23.0 °F 28.4 °F 87% 29.56 in 4.0 mi East 11.5 mph 17.3 mph N/A Snow Light Snow
6:11 PM 32.0 °F 22.5 °F 28.4 °F 87% 29.55 in 4.0 mi ENE 12.7 mph 16.1 mph 0.01 in   Overcast
6:31 PM 32.0 °F 22.5 °F 28.4 °F 87% 29.54 in 4.0 mi ENE 12.7 mph 17.3 mph 0.02 in   Overcast
6:51 PM 32.0 °F 23.6 °F 30.2 °F 93% 29.54 in 2.5 mi ENE 10.4 mph 16.1 mph 0.03 in   Overcast
7:11 PM 32.0 °F 24.8 °F 30.2 °F 93% 29.53 in 2.0 mi ENE 8.1 mph - 0.02 in Snow Light Snow
7:31 PM 32.0 °F 23.6 °F 30.2 °F 93% 29.53 in 7.0 mi East 10.4 mph - 0.04 in Snow Light Snow
7:51 PM 32.0 °F 24.8 °F 30.2 °F 93% 29.53 in 10.0 mi ENE 8.1 mph - 0.06 in   Overcast
8:12 PM 32.0 °F 24.2 °F 30.2 °F 93% 29.51 in 10.0 mi ENE 9.2 mph - 0.02 in   Overcast
8:31 PM 32.0 °F 26.4 °F 30.2 °F 93% 29.52 in 5.0 mi ENE 5.8 mph - 0.03 in Snow Snow
8:51 PM 32.0 °F 24.8 °F 30.2 °F 93% 29.51 in 10.0 mi ENE 8.1 mph - 0.04 in   Overcast
9:12 PM 33.8 °F 27.0 °F 30.2 °F 87% 29.51 in 10.0 mi ENE 8.1 mph - 0.02 in   Overcast
9:31 PM 33.8 °F 26.4 °F 30.2 °F 87% 29.52 in 10.0 mi ENE 9.2 mph - 0.02 in   Overcast
9:51 PM 32.0 °F 25.6 °F 30.2 °F 93% 29.52 in 3.0 mi East 6.9 mph - 0.03 in   Light Drizzle
10:12 PM 32.0 °F 25.6 °F 30.2 °F 93% 29.52 in 5.0 mi East 6.9 mph - N/A   Overcast
10:31 PM 33.8 °F 26.4 °F 30.2 °F 87% 29.51 in 3.0 mi East 9.2 mph - 0.01 in   Overcast
10:51 PM 33.8 °F 26.4 °F 30.2 °F 87% 29.49 in 3.0 mi East 9.2 mph - 0.01 in   Overcast
11:12 PM 33.8 °F 27.0 °F 30.2 °F 87% 29.49 in 7.0 mi East 8.1 mph - 0.01 in   Overcast
11:31 PM 33.8 °F 27.0 °F 30.2 °F 87% 29.48 in 3.0 mi ESE 8.1 mph - 0.01 in   Overcast
11:51 PM 33.8 °F 27.0 °F 30.2 °F 87% 29.48 in 3.0 mi ESE 8.1 mph - 0.02 in   Overcast